カタログに戻る

CZ-3B R/B

運用中HEO
NORAD 43247·ROCKET BODY·🇨🇳 China

打ち上げ Mar 29, 2018 から Xichang Satellite Launch Center

Loading…

次のパス (今後24時間)

TLE

最新Source: Space-Track

元期: Sep 14, 2026, 02:30 UTC

1 43247U 18029C   26257.10418032  .00004801  00000-0  12431-2 0  9997
2 43247  54.9436  35.2745 5534715 113.0206 313.0943  4.73268284144693

AllMySatでCZ-3B R/Bをリアルタイム追跡

Download on the App Store